Temperature
29 30 30 30 30 30 30 31 31 31 31 32 31 30 29 27 27 26 25 24 23 22 22 21 21 21 21 20 20 20 19 19 19 18 18 18 18 17 17 17 16 16 16 16
28 29 29 29 30 30 30 30 31 31 31 32 30 29 28 27 26 26 25 24 23 22 22 22 21 21 21 21 20 20 19 19 19 18 18 18 17 17 17 17 16 16 16 15
27 28 28 28 29 30 30 30 31 30 31 30 30 28 27 26 26 26 25 24 23 22 22 22 22 21 21 21 20 19 19 19 18 18 18 18 17 17 17 17 16 16 16 15
27 27 26 29 30 30 30 30 30 31 30 30 29 28 27 26 25 25 24 23 22 22 22 21 21 21 21 20 20 19 19 19 18 18 18 18 17 17 17 16 16 16 16 15
27 26 27 28 29 29 29 29 30 30 29 28 28 27 27 25 25 24 24 23 22 22 22 21 21 21 20 20 19 19 19 18 18 18 18 17 17 17 17 16 16 16 15 15
26 26 26 28 28 27 28 28 28 28 28 27 27 29 29 25 24 23 23 22 22 22 21 21 21 21 20 20 19 19 19 18 18 18 18 17 17 17 16 16 16 15 15 15
25 26 27 28 27 27 27 27 27 26 26 26 27 27 25 24 23 22 22 22 22 21 21 21 21 21 20 20 19 19 19 18 18 18 18 17 17 17 16 16 16 15 15 15
25 25 26 26 27 27 26 25 25 25 25 25 25 24 23 23 22 22 21 21 21 21 21 21 20 20 20 20 19 19 18 18 18 17 17 17 16 16 16 15 15 15 15 14
26 26 25 24 25 24 23 23 24 24 24 24 23 23 22 22 21 21 21 21 20 20 20 20 20 20 19 19 19 18 18 18 17 17 17 16 16 16 15 15 15 14 14 14
24 24 24 23 22 22 22 22 23 23 23 23 23 22 22 21 21 21 20 20 20 20 20 19 19 19 19 19 19 18 18 18 17 17 16 16 16 15 15 15 15 14 14 14
23 23 23 22 22 21 21 21 22 22 22 22 21 21 21 21 20 20 20 20 19 19 19 19 19 19 18 18 18 18 17 17 17 16 16 16 15 15 15 15 15 14 14 14
23 22 23 22 21 21 21 21 21 21 21 21 21 20 20 20 20 20 20 19 19 19 19 19 19 18 18 18 18 17 17 17 16 16 16 15 15 15 15 15 14 14 14 14
20 20 20 20 20 20 20 20 20 20 20 20 20 20 20 19 19 19 19 19 19 19 19 19 18 18 18 18 18 17 17 17 16 16 16 15 15 15 15 15 15 14 14 14
18 18 19 19 19 19 19 19 19 20 19 19 19 19 19 19 19 19 18 18 18 18 18 18 18 18 18 17 17 17 16 16 16 16 16 15 15 15 15 15 14 14 14 14
17 18 18 18 18 18 18 19 19 19 19 18 18 18 18 18 18 18 18 18 18 18 18 18 17 17 17 17 17 16 16 16 16 16 16 15 15 15 15 15 14 14 14 14
17 17 17 18 18 18 18 19 19 18 18 18 18 18 18 18 18 17 17 17 17 17 17 17 17 17 17 16 16 16 16 16 16 16 16 15 15 15 15 14 14 14 14 14
17 17 17 17 18 18 18 18 18 18 18 18 17 17 17 17 17 17 17 17 17 17 17 17 16 16 16 16 16 16 15 15 15 15 15 15 15 15 15 14 14 14 14 14
16 17 17 17 17 17 17 17 17 17 17 17 17 17 16 16 16 16 16 16 16 16 16 16 16 16 16 16 16 15 15 16 16 15 15 15 15 14 14 14 14 14 13 13
16 16 16 16 16 17 17 17 17 16 16 16 16 16 16 16 16 16 16 15 15 15 16 16 16 16 16 15 15 15 15 15 15 15 15 15 14 14 14 14 14 13 13 13
15 15 15 16 16 16 16 16 16 16 16 16 16 15 15 15 15 15 15 15 15 15 15 15 15 15 15 15 15 15 15 15 15 15 14 14 14 14 14 14 13 13 13 12
14 15 15 15 15 15 15 15 15 15 15 15 15 15 15 15 15 15 15 15 15 15 15 15 15 15 15 15 15 14 14 14 14 14 14 14 14 14 14 13 13 13 12 12
13 14 14 14 14 14 14 14 15 15 15 15 15 15 14 14 14 14 14 14 14 14 14 14 14 15 15 14 14 14 14 14 14 14 14 14 13 13 13 13 13 12 12 11
13 13 13 14 14 14 14 14 14 14 14 14 14 14 14 14 14 14 14 14 14 14 14 14 14 14 14 14 14 14 14 14 14 13 13 13 13 13 13 12 12 12 12 11
12 13 13 13 13 13 13 13 14 14 14 14 14 14 14 14 14 14 14 14 14 14 14 14 14 14 14 13 13 13 13 13 13 13 13 13 13 12 12 12 11 11 11 11
12 12 12 13 13 13 13 13 13 13 13 13 13 13 13 13 13 13 13 14 14 14 14 13 13 13 13 13 13 13 13 13 13 13 12 12 12 12 11 11 11 11 10 10
12 12 12 13 13 13 12 13 13 13 13 13 13 13 13 13 13 13 13 13 13 13 13 13 13 13 13 13 13 13 13 12 12 12 12 12 11 11 11 11 10 10 10 10
12 12 12 12 12 12 12 12 12 12 12 12 12 12 12 12 12 12 13 13 13 13 13 13 12 12 12 12 12 12 12 12 12 12 12 11 11 11 10 10 10 10 10 9
Wind_Speed
11 9 13 15 16 16 17 15 13 12 11 7 5 5 6 7 8 9 9 9 9 9 9 9 9 9 9 9 9 9 9 8 7 7 7 6 5 5 4 3 3 3 2 2
12 11 13 15 16 17 17 16 14 13 11 5 4 5 6 7 8 9 9 9 9 9 9 9 9 9 9 9 10 10 9 9 8 8 7 7 6 5 5 4 3 3 3 2
14 13 13 17 17 17 16 16 15 14 11 6 6 6 7 7 8 8 8 8 9 9 9 9 9 9 10 10 10 10 10 9 9 8 8 7 7 6 5 5 4 3 3 2
11 11 16 12 11 14 15 15 14 12 8 7 7 6 6 6 7 7 8 9 9 9 9 9 9 9 9 10 11 10 10 9 9 8 8 7 7 6 5 4 4 3 3 3
12 15 14 8 8 11 13 13 11 10 8 6 5 6 6 5 5 6 8 8 8 8 9 9 9 10 10 10 11 11 10 9 9 9 9 8 7 6 5 5 4 4 3 3
12 15 16 10 8 7 10 12 8 8 7 7 7 9 6 5 6 6 7 7 7 8 8 9 9 10 11 10 11 11 10 10 9 9 9 8 8 7 6 5 5 4 4 3
15 14 11 5 8 9 12 8 5 7 7 8 8 5 2 4 6 6 7 8 8 7 7 8 9 10 10 10 10 10 10 10 9 9 9 8 8 7 6 6 5 4 4 4
14 15 11 6 8 9 4 1 3 5 6 7 5 4 3 5 6 7 7 8 8 7 7 7 8 10 10 10 9 9 9 9 9 9 8 8 8 7 7 6 6 6 5 4
9 7 2 5 4 2 1 3 4 5 5 6 6 5 5 5 6 6 7 7 7 7 7 6 7 8 9 8 9 9 9 9 9 9 8 8 9 8 8 7 6 6 6 5
5 5 4 4 3 3 3 4 4 5 5 5 6 6 6 5 5 6 7 7 7 7 7 6 6 7 7 8 9 9 9 9 9 9 9 8 7 7 7 7 6 6 5 5
7 6 5 5 3 3 3 3 3 4 5 5 5 6 6 5 6 6 6 7 7 7 7 7 7 7 7 8 8 9 9 8 9 8 8 8 7 5 6 4 3 4 5 5
6 4 5 5 4 4 3 3 3 3 3 3 4 5 5 5 5 6 6 6 7 7 6 7 7 7 7 8 8 9 9 9 8 8 8 7 7 6 2 2 4 2 1 2
4 4 4 4 4 4 3 3 3 3 3 3 3 5 5 5 5 6 6 7 7 7 6 6 7 7 7 8 8 9 8 8 7 7 8 8 8 8 7 4 4 4 4 3
3 3 3 3 4 3 2 2 2 2 2 3 3 4 4 5 6 6 6 6 6 6 6 6 6 6 7 8 8 8 8 8 7 7 7 7 7 7 7 7 7 6 6 8
3 3 3 3 3 3 3 3 3 3 3 3 3 4 4 5 5 5 5 5 5 6 6 6 6 6 6 7 8 8 7 7 6 6 7 7 7 7 7 7 7 6 5 6
3 3 3 4 4 4 4 4 3 3 3 3 3 3 3 3 4 4 5 5 6 6 6 6 6 5 6 7 7 7 6 6 7 7 7 7 7 7 7 7 7 7 6 5
4 5 4 4 4 4 4 3 3 3 3 3 2 2 3 3 4 4 4 4 5 5 5 6 6 6 6 7 7 6 6 7 9 8 7 7 7 7 7 6 6 6 6 5
5 6 6 5 3 3 3 3 3 3 3 3 3 3 3 4 4 4 4 4 4 4 5 5 6 6 7 8 7 6 6 7 8 7 6 7 7 7 6 6 6 6 4 5
4 5 5 4 3 3 3 3 3 3 3 3 3 3 3 3 4 4 4 5 5 6 5 5 6 7 8 8 7 6 6 7 6 6 6 6 7 6 6 6 5 5 5 5
3 3 3 3 3 3 3 2 3 3 2 3 3 3 3 4 4 4 5 5 5 4 4 5 6 6 6 7 7 6 7 7 7 6 6 6 6 6 6 6 5 5 5 5
2 2 2 2 2 2 3 3 3 2 2 3 4 4 4 4 4 4 5 5 4 3 5 6 6 5 5 5 7 6 6 6 6 6 6 6 6 6 6 5 5 5 5 5
1 1 1 1 1 1 2 2 3 3 3 3 3 3 3 3 3 4 4 4 3 4 5 5 6 5 5 5 6 5 6 6 6 5 5 5 5 5 5 5 5 4 4 4
1 1 0 0 1 0 1 1 2 2 2 2 3 3 3 3 3 4 3 2 3 4 4 4 4 6 7 6 5 5 5 5 5 5 5 5 4 4 4 4 4 4 4 4
2 2 1 1 1 1 1 0 0 0 1 1 2 3 3 3 3 3 2 3 3 4 4 4 6 7 8 6 5 5 4 4 4 4 4 4 4 4 4 4 4 4 4 4
2 1 1 1 1 0 1 1 0 0 0 1 1 2 3 3 2 2 2 2 4 4 3 5 8 8 7 5 4 4 4 3 3 3 3 3 3 3 3 3 3 3 3 3
2 2 2 2 1 1 0 0 0 0 1 1 1 1 1 1 1 1 2 3 3 3 3 3 5 6 5 4 4 4 3 4 4 3 3 3 3 3 3 3 3 3 3 2
1 1 2 2 2 1 1 1 1 0 0 0 0 1 1 0 0 1 1 2 2 2 2 3 3 4 4 4 4 3 3 3 3 3 2 2 3 3 3 4 3 3 2 2
Wind_Direction
235 222 207 211 210 211 222 233 240 237 238 222 199 196 186 178 174 167 164 164 164 164 161 162 163 166 168 167 166 165 163 160 158 154 151 149 148 146 144 143 139 130 118 105
221 220 217 220 218 217 223 229 237 241 240 223 199 191 181 178 177 174 170 168 167 166 163 164 164 165 166 168 165 165 166 163 157 156 153 153 154 153 150 146 137 129 120 111
218 211 218 225 220 219 222 227 231 234 234 201 199 199 195 189 186 182 173 168 169 170 168 167 167 167 167 167 164 165 166 163 162 160 158 160 160 155 152 150 146 139 131 123
219 205 224 228 216 219 223 227 230 236 228 216 223 215 208 196 190 185 173 168 168 171 169 168 166 166 166 162 165 167 166 166 164 163 161 162 161 158 157 158 156 149 142 136
219 219 224 214 206 210 216 222 221 228 226 223 217 207 203 189 187 180 172 167 166 168 167 165 166 165 164 164 167 169 170 170 169 169 165 167 167 162 161 162 159 157 145 137
219 225 227 211 186 201 215 220 208 217 220 217 213 227 214 174 175 167 160 157 158 160 161 163 166 167 167 169 171 174 173 172 170 171 170 171 168 165 163 165 164 158 141 137
221 226 230 197 172 186 215 216 192 215 218 215 220 247 206 164 167 165 161 158 155 155 156 161 166 172 175 175 178 176 171 169 170 172 173 171 167 167 169 172 165 156 148 147
218 225 221 169 184 205 231 204 207 220 218 218 216 207 187 166 161 161 160 159 155 152 152 156 167 173 177 179 176 171 170 171 173 173 173 169 169 171 176 177 170 166 164 169
217 222 145 172 200 203 245 240 234 232 228 214 208 204 189 174 164 163 162 162 161 156 154 158 170 177 177 172 169 168 171 174 175 175 173 173 176 177 182 189 189 181 181 182
218 208 199 194 214 232 247 251 250 236 218 208 205 197 187 178 172 171 171 168 166 164 162 166 173 175 172 168 169 172 176 177 175 177 177 176 182 187 193 191 192 191 191 190
218 214 209 207 228 247 259 252 235 222 218 212 199 194 191 185 181 179 176 172 171 171 169 169 171 171 167 164 170 176 176 178 181 184 179 178 185 189 199 192 196 204 198 195
220 213 228 229 244 249 238 226 217 206 206 208 197 190 188 183 180 177 174 171 174 174 170 168 169 171 172 170 174 180 182 183 186 186 182 185 182 179 108 150 137 154 310 272
252 260 259 253 251 245 235 219 204 196 192 192 186 180 179 177 175 177 178 177 180 181 177 172 172 174 174 175 180 187 188 184 186 188 184 188 189 188 184 176 172 190 202 216
239 239 238 243 244 235 217 195 180 167 164 170 172 172 170 173 174 181 185 185 185 182 179 177 178 179 177 177 184 191 190 183 187 186 187 190 193 197 195 190 191 196 199 194
235 250 249 244 228 201 181 171 164 163 159 157 158 164 171 176 177 182 187 186 183 185 185 181 182 181 178 179 182 187 188 183 185 185 191 192 195 201 202 202 199 191 186 177
230 227 229 225 210 189 182 182 181 184 179 167 161 170 182 189 181 183 187 188 192 195 190 188 189 185 183 184 183 186 188 178 186 191 193 195 198 204 205 205 207 204 200 189
215 218 225 229 219 206 203 204 204 206 204 195 184 178 186 193 189 186 195 201 207 204 197 193 192 187 189 189 191 193 189 183 188 198 198 199 201 206 209 211 212 211 206 180
238 232 232 233 236 226 218 214 212 208 203 208 203 196 196 203 202 197 192 195 209 208 205 196 188 187 190 191 195 197 194 195 197 200 199 202 204 207 210 210 212 214 206 175
234 236 239 236 236 236 229 218 212 210 206 206 206 212 216 216 215 210 198 200 207 209 206 196 185 193 191 191 195 200 200 198 198 202 204 193 200 207 206 209 209 207 203 198
230 231 233 238 236 232 226 208 205 210 213 206 201 207 214 215 213 208 209 219 226 222 192 183 186 195 194 193 200 206 201 200 202 201 203 202 200 202 205 209 210 209 207 209
221 213 204 213 218 219 215 209 208 205 212 205 199 206 218 222 220 219 222 227 215 194 187 179 195 198 196 189 197 207 202 201 202 202 204 201 200 201 205 208 210 210 209 210
78 140 171 177 168 188 204 212 208 203 202 203 206 211 215 222 227 232 237 241 211 182 195 198 198 183 182 186 202 208 202 198 196 197 201 201 200 201 204 205 205 204 203 205
5 350 342 129 152 187 209 205 206 203 196 210 214 217 228 242 243 233 233 217 202 186 203 205 165 151 168 194 198 195 194 192 193 194 197 200 200 200 199 199 199 198 198 199
359 350 8 39 84 122 125 122 280 198 193 237 225 222 234 240 243 240 232 169 177 186 204 165 154 164 178 186 185 183 182 184 189 190 191 191 190 190 192 190 188 190 194 195
10 21 47 66 90 68 57 56 73 122 237 247 236 227 239 238 233 224 209 186 165 180 189 166 164 173 178 181 178 175 172 171 176 180 182 185 183 178 181 183 184 187 192 192
9 17 22 9 14 13 12 120 214 204 231 251 265 248 250 238 223 215 196 172 164 161 168 167 164 168 172 169 164 162 160 159 162 169 178 182 177 170 167 167 171 185 187 185
2 27 39 33 36 27 16 7 15 20 20 193 302 316 336 352 9 141 143 136 135 139 132 131 139 146 149 148 148 148 152 153 152 154 156 160 163 158 157 162 173 174 174 168
Height
1487 1484 1488 1493 1496 1498 1499 1498 1502 1499 1497 1496 1498 1502 1506 1508 1511 1514 1516 1519 1521 1523 1525 1528 1530 1532 1534 1536 1538 1539 1541 1542 1544 1545 1546 1547 1548 1549 1549 1549 1550 1549 1549 1549
1493 1488 1488 1492 1491 1493 1494 1494 1495 1495 1495 1493 1498 1502 1505 1507 1510 1511 1514 1517 1519 1522 1524 1526 1528 1530 1532 1534 1535 1537 1539 1541 1542 1543 1545 1546 1547 1548 1548 1549 1549 1549 1548 1548
1493 1489 1492 1497 1488 1489 1490 1489 1491 1495 1492 1494 1498 1500 1503 1506 1508 1510 1512 1515 1518 1520 1522 1523 1526 1528 1530 1532 1534 1535 1537 1539 1541 1542 1544 1545 1546 1547 1547 1547 1548 1548 1548 1548
1490 1497 1509 1486 1478 1481 1486 1487 1487 1487 1489 1493 1497 1499 1502 1504 1506 1508 1511 1513 1515 1518 1520 1522 1524 1526 1528 1530 1532 1534 1536 1538 1539 1540 1542 1544 1545 1545 1546 1546 1547 1547 1547 1547
1490 1495 1492 1484 1481 1482 1485 1487 1486 1487 1490 1494 1496 1498 1500 1503 1505 1507 1509 1511 1513 1515 1517 1519 1521 1524 1526 1528 1530 1532 1533 1535 1537 1538 1540 1542 1543 1544 1545 1545 1546 1546 1546 1546
1490 1495 1495 1481 1479 1483 1485 1489 1486 1488 1491 1493 1495 1493 1494 1500 1502 1505 1507 1509 1511 1513 1515 1517 1519 1521 1523 1525 1527 1529 1531 1533 1534 1536 1538 1539 1541 1542 1543 1544 1545 1545 1545 1545
1488 1489 1479 1474 1479 1484 1492 1487 1486 1488 1490 1492 1493 1493 1496 1498 1501 1503 1505 1507 1509 1511 1513 1514 1516 1519 1521 1523 1524 1527 1529 1530 1532 1534 1535 1537 1538 1540 1541 1542 1543 1543 1544 1544
1484 1487 1484 1477 1479 1481 1482 1484 1485 1487 1489 1491 1493 1494 1495 1497 1499 1501 1503 1505 1507 1508 1510 1512 1514 1516 1518 1520 1522 1524 1526 1528 1529 1531 1533 1535 1536 1537 1539 1540 1541 1542 1542 1543
1475 1477 1476 1478 1479 1482 1484 1484 1485 1486 1488 1490 1491 1493 1494 1496 1498 1499 1501 1503 1505 1506 1508 1510 1512 1514 1516 1517 1520 1521 1523 1525 1527 1529 1530 1532 1534 1535 1536 1538 1539 1540 1541 1542
1475 1475 1477 1479 1481 1482 1483 1484 1484 1485 1486 1488 1489 1491 1492 1494 1496 1497 1499 1501 1502 1504 1506 1507 1509 1511 1513 1514 1516 1519 1521 1522 1524 1526 1528 1530 1531 1533 1534 1536 1537 1538 1540 1541
1474 1476 1478 1479 1480 1481 1482 1482 1483 1483 1485 1486 1487 1488 1490 1492 1493 1495 1497 1499 1500 1502 1503 1504 1506 1508 1510 1511 1513 1516 1518 1519 1521 1524 1525 1527 1528 1530 1531 1532 1534 1535 1537 1538
1472 1476 1476 1478 1479 1480 1480 1481 1481 1482 1483 1484 1486 1486 1488 1489 1491 1493 1494 1496 1498 1499 1501 1502 1504 1505 1507 1508 1510 1513 1514 1516 1518 1521 1522 1524 1525 1527 1528 1529 1530 1532 1533 1534
1476 1476 1476 1477 1478 1478 1479 1479 1479 1480 1481 1482 1483 1485 1486 1487 1489 1491 1492 1494 1495 1496 1498 1500 1501 1503 1504 1505 1507 1509 1511 1513 1515 1517 1519 1521 1523 1524 1525 1526 1527 1529 1530 1531
1475 1475 1476 1476 1476 1477 1477 1477 1478 1479 1480 1481 1482 1483 1484 1485 1486 1488 1490 1491 1493 1494 1496 1497 1499 1500 1501 1503 1504 1505 1508 1510 1512 1514 1516 1518 1520 1522 1523 1523 1524 1525 1527 1527
1474 1474 1474 1475 1475 1475 1476 1477 1477 1478 1479 1480 1480 1481 1482 1483 1484 1485 1487 1489 1490 1492 1493 1495 1496 1498 1499 1500 1501 1502 1505 1506 1508 1510 1513 1515 1517 1519 1520 1521 1521 1522 1523 1524
1472 1472 1473 1473 1473 1474 1475 1475 1476 1477 1478 1478 1479 1479 1480 1481 1482 1483 1485 1487 1488 1489 1490 1491 1493 1494 1496 1498 1499 1500 1502 1503 1505 1508 1510 1512 1513 1515 1516 1517 1518 1519 1520 1521
1470 1471 1471 1472 1472 1472 1473 1474 1475 1475 1476 1477 1477 1477 1478 1479 1480 1481 1483 1484 1486 1486 1487 1488 1490 1491 1493 1495 1497 1499 1500 1501 1503 1505 1507 1508 1510 1511 1512 1513 1514 1515 1516 1516
1468 1469 1469 1470 1470 1470 1471 1472 1473 1474 1474 1475 1475 1476 1476 1477 1478 1479 1480 1481 1483 1484 1485 1485 1487 1488 1490 1492 1494 1496 1498 1499 1500 1501 1503 1504 1505 1507 1508 1509 1510 1511 1512 1513
1466 1466 1467 1467 1468 1468 1469 1470 1471 1471 1472 1472 1473 1474 1474 1475 1476 1477 1477 1479 1480 1480 1481 1482 1484 1485 1487 1488 1490 1492 1493 1495 1496 1498 1499 1500 1501 1503 1504 1505 1506 1507 1508 1509
1463 1463 1464 1464 1465 1466 1467 1467 1469 1469 1470 1471 1471 1472 1473 1474 1475 1475 1475 1476 1477 1478 1479 1480 1481 1482 1483 1485 1486 1488 1489 1491 1492 1494 1495 1497 1497 1499 1500 1501 1502 1504 1504 1505
1461 1461 1461 1462 1462 1463 1464 1466 1466 1467 1468 1469 1469 1470 1471 1472 1472 1473 1473 1473 1474 1475 1475 1476 1477 1478 1480 1482 1483 1484 1485 1487 1488 1490 1492 1493 1494 1495 1496 1498 1499 1499 1500 1501
1459 1459 1460 1460 1461 1461 1462 1463 1464 1465 1466 1466 1467 1468 1469 1469 1470 1470 1470 1470 1471 1471 1472 1474 1475 1475 1477 1479 1480 1481 1483 1484 1485 1487 1488 1490 1491 1492 1493 1494 1495 1495 1496 1497
1458 1459 1459 1460 1460 1460 1461 1462 1463 1463 1463 1464 1465 1466 1467 1467 1467 1468 1467 1468 1468 1468 1469 1471 1471 1472 1474 1476 1477 1479 1480 1481 1482 1484 1485 1486 1487 1488 1489 1490 1490 1491 1492 1493
1458 1458 1459 1459 1459 1459 1460 1460 1460 1461 1461 1462 1463 1464 1464 1465 1464 1465 1465 1465 1465 1466 1467 1467 1468 1469 1471 1473 1474 1476 1477 1478 1480 1481 1482 1483 1484 1484 1485 1486 1486 1487 1488 1489
1459 1458 1458 1458 1458 1459 1459 1459 1459 1459 1460 1461 1462 1462 1462 1462 1462 1462 1462 1462 1463 1463 1464 1464 1465 1466 1468 1470 1472 1473 1474 1476 1477 1478 1479 1480 1481 1481 1482 1483 1484 1485 1486 1487
1459 1458 1458 1458 1458 1457 1457 1458 1458 1458 1459 1459 1459 1459 1460 1460 1460 1460 1460 1460 1461 1461 1462 1463 1463 1464 1465 1467 1469 1470 1472 1474 1475 1476 1477 1477 1478 1479 1480 1481 1482 1483 1484 1485
1459 1459 1458 1458 1458 1457 1457 1457 1457 1457 1457 1457 1457 1458 1458 1458 1458 1458 1458 1459 1460 1460 1460 1461 1462 1463 1464 1466 1467 1469 1471 1472 1473 1474 1475 1476 1477 1477 1479 1480 1481 1482 1482 1483